Regional Weather Roundup
Issued by NWS Little Rock, AR

Home | Current Version | Previous Version | Graphics & Text | Print | Product List | Glossary On
Versions: 1 2 3 4 5 6 7 8 9 10 11 12 13 14 15 16 17 18 19 20 21 22 23 24 25 26 27 28 29 30 31 32 33 34 35 36 37 38 39 40 41 42 43 44 45 46 47 48 49 50
000
ASUS44 KLZK 100105
RWRLZK

WEATHER ROUNDUP FOR ARKANSAS
NATIONAL WEATHER SERVICE LITTLE ROCK AR
700 PM CST TUE FEB 09 2016

NOTE: "FAIR" INDICATES FEW OR NO CLOUDS BELOW 12,000 FEET WITH NO
SIGNIFICANT WEATHER AND/OR OBSTRUCTIONS TO VISIBILITY.

ARZ001-003-010-029-100200-
NORTHWEST ARKANSAS

CITY           SKY/WX    TMP DP  RH WIND       PRES   REMARKS
FAYETTEVILLE   CLEAR     31  10  41 NW9       30.21R WCI  23
FORT SMITH     CLEAR     41   9  26 NW12      30.24R
HARRISON       CLEAR     30   6  36 NW10      30.16R WCI  21
BENTONVILLE    CLEAR     32   5  32 NW12      30.21R WCI  23
ROGERS         CLEAR     31   9  39 NW10      30.20R WCI  22
SILOAM SPGS    CLEAR     34   9  35 NW15      30.22R WCI  24
HIGHFILL       CLEAR     31   9  39 NW8       30.20R WCI  23
SPRINGDALE     CLEAR     32   7  34 NW10G16   30.22R WCI  24
$$

ARZ004-005-016-100200-
NORTH CENTRAL ARKANSAS

CITY           SKY/WX    TMP DP  RH WIND       PRES   REMARKS
BATESVILLE     CLEAR     34   9  35 NW5       30.16R WCI  30
FLIPPIN        CLEAR     34   7  32 NW9       30.15R WCI  26
MTN HOME       CLEAR     30   9  41 N9        30.14R WCI  22
$$

ARZ040-041-100200-
WEST CENTRAL ARKANSAS

CITY           SKY/WX    TMP DP  RH WIND       PRES   REMARKS
MENA           CLEAR     43  16  33 NW9       30.21R
MOUNT IDA      CLEAR     42  12  29 NW9G16    30.16R
$$

ARZ009-017-025-026-028-100200-
NORTHEAST ARKANSAS

CITY           SKY/WX    TMP DP  RH WIND       PRES   REMARKS
CORNING        FAIR      28  12  50 NW5       30.15R WCI  23
JONESBORO      CLEAR     29  12  49 NW3       30.15R
NEWPORT        PTCLDY    29  11  47 NW3       30.18R
WALNUT RIDGE   CLEAR     28   9  43 NW9       30.16R WCI  20
BLYTHEVILLE    CLEAR     26  16  65 NW5       30.15R WCI  20
$$

ARZ022-023-033-042-044-100200-
CENTRAL ARKANSAS

CITY           SKY/WX    TMP DP  RH WIND       PRES   REMARKS
LITTLE ROCK    CLEAR     42   8  24 NW16      30.18R
N LITTLE ROCK  CLEAR     38   8  28 NW5       30.18R
JACKSONVILLE   CLEAR     38   7  27 NW5       30.16R
SEARCY         CLEAR     35  10  35 NW5       30.19R WCI  31
HOT SPRINGS    CLEAR     43  10  26 NW9G18    30.19R
RUSSELLVILLE   CLEAR     39   9  29 NW15G21   30.19R
CLINTON        FAIR      34   7  32 CALM      30.18R
$$

ARZ036-100200-
EAST ARKANSAS

CITY           SKY/WX    TMP DP  RH WIND       PRES   REMARKS
WEST MEMPHIS   CLEAR     31  17  56 VRB6      30.16R WCI  25
$$

ARZ050-053-066-070-073-100200-
SOUTHWEST ARKANSAS

CITY           SKY/WX    TMP DP  RH WIND       PRES   REMARKS
ARKADELPHIA    FAIR      44  14  29 W7        30.21R
CAMDEN         CLEAR     45   9  23 NW6       30.19R
TEXARKANA      CLEAR     46  19  34 NW12      30.22R
EL DORADO      CLEAR     46  16  30 NW10      30.18R
DE QUEEN       CLEAR     44  20  38 NW5       30.22R
$$

ARZ056-057-069-100200-
SOUTHEAST ARKANSAS

CITY           SKY/WX    TMP DP  RH WIND       PRES   REMARKS
PINE BLUFF     CLEAR     43  10  26 NW13      30.16R
STUTTGART      CLEAR     34  16  47 N10       30.17R WCI  26
MONTICELLO     CLEAR     45  11  25 NW8       30.15R

$$





USA.gov is the U.S. government's official web portal to all federal, state and local government web resources and services.